Regional Weather Roundup
Issued by NWS

Home | Current Version | Previous Version | Graphics & Text | Print | Product List | Glossary On
Versions: 1 2 3 4 5 6 7 8 9 10 11 12 13 14 15 16 17 18 19 20 21 22 23 24 25 26 27 28 29 30 31 32 33 34 35 36 37 38 39 40 41 42 43 44 45 46 47 48 49 50
000
ASUS43 KFSD 231002
RWRSD

WEATHER ROUNDUP FOR SOUTH DAKOTA
NATIONAL WEATHER SERVICE SIOUX FALLS SD
500 AM CDT MON OCT 23 2017

NOTE: "FAIR" INDICATES FEW OR NO CLOUDS BELOW 12,000 FEET WITH NO
SIGNIFICANT WEATHER AND/OR OBSTRUCTIONS TO VISIBILITY.


SDZ001>005-009-010-012>017-231100-
NORTHWEST AND NORTH CENTRAL SOUTH DAKOTA

CITY           SKY/WX    TMP DP  RH WIND       PRES   REMARKS
BUFFALO          N/A     47  32  56 NW31G40   30.01R
MOBRIDGE       PTCLDY    50  39  66 NW23G32   29.90R
$$

SDZ012>016-024>037-041>051-057-063-072>074-231100-
SOUTHWEST AND SOUTH CENTRAL SOUTH DAKOTA

CITY           SKY/WX    TMP DP  RH WIND       PRES   REMARKS
RAPID CTY ARPT CLEAR     50  21  32 NW30G41   30.12R
PIERRE         CLEAR     52  36  54 NW25G35   29.99R
CUSTER         CLEAR     40  17  39 NW7G30    30.17R
ELLSWORTH AFB  CLEAR     50  21  32 NW26G38   30.10R
PHILIP         PTCLDY    50  28  42 W14       30.07R
PINE RIDGE     CLOUDY    48  38  68 W3        30.16R
SPEARFISH      FAIR      46  19  34 W16G26    30.17R
WINNER         FAIR      56  39  53 NW21G31   30.02R
$$

SDZ004>011-016>023-039-040-231100-
NORTHEAST SOUTH DAKOTA

CITY           SKY/WX    TMP DP  RH WIND       PRES   REMARKS
ABERDEEN       CLEAR     50  40  68 W18G31    29.84R
WATERTOWN      PTCLDY    52  42  69 W16       29.83R
BROOKINGS      CLOUDY    52  41  66 NW15      29.85R
SISSETON         N/A     54  41  61 W21G30    29.75R
$$

SDZ017-020-022-023-036>040-048>070-231100-
SOUTHEAST SOUTH DAKOTA

CITY           SKY/WX    TMP DP  RH WIND       PRES   REMARKS
SIOUX FALLS    MOCLDY    53  39  59 NW12      29.86R
HURON          CLOUDY    56  40  55 NW28G37   29.88R
CHAMBERLAIN    MOCLDY    55  43  65 W14       29.98R
MITCHELL       CLOUDY    56  42  59 NW17      29.92R
YANKTON        PTCLDY    51  37  58 NW15      29.91R
$$

ABBREVIATIONS USED IN REMARKS
   TC - TEMPERATURE IN CELSIUS
  WCI - WIND CHILL INDEX
   HX - HEAT INDEX
  VSB - VISIBILITY





USA.gov is the U.S. government's official web portal to all federal, state and local government web resources and services.